Location: Caltech
(34.1382°N, 118.1253°W)
Time: 11:43:44
(UTC-07:00)

Iridium 12 - Visible Passes

Search period start: 06 May 2016 00:00
Search period end: 16 May 2016 00:00
Orbit: 776 x 779 km, 86.4° (Epoch: 05 May)

Date Brightness Start Highest point End Pass type
(mag) Time Alt. Az. Time Alt. Az. Time Alt. Az.
06 May 7.5 21:25:51 10° SW 21:30:14 27° W 21:34:39 10° NNW visible
07 May 6.3 20:51:31 10° SSW 20:56:35 53° W 21:01:41 10° N visible
08 May 5.5 20:17:51 10° S 20:23:03 79° E 20:28:16 10° N visible
09 May 8.2 21:26:53 10° WSW 21:30:28 19° W 21:34:03 10° NW visible
10 May 7.2 20:52:00 10° SSW 20:56:44 35° W 21:01:30 10° NNW visible
11 May 5.9 20:17:57 10° S 20:23:08 70° W 20:28:20 10° N visible
12 May 8.5 21:28:41 10° W 21:30:44 12° WNW 21:32:48 10° NW visible
13 May 7.9 20:52:46 10° SW 20:56:56 24° W 21:01:06 10° NNW visible
14 May 6.8 20:18:17 10° SSW 20:23:14 46° W 20:28:16 10° NNW visible
